Погода в Папулине

Россия / Владимирская область     55°33′31″N   41°45′43″E
темп.,
°C
ветер,
м/с
пор.,
м/с
влажн.,
%
обл.,
%
осадки,
мм/ч
давл.,
гПа
погр.,
м
17 мая, пн
пн1700:00+14зюз008136 0.0 101511
03:00+14св118394 0.0 101511
06:00+15всв248653 0.1 1015116
09:00+20в477754 1.1 1015432
12:00+26вюв45545 0.0 10151174
15:00+28юв454640 0.0 10141507
18:00+25ююв3860100 0.0 1013258
21:00+18юв3872100 0.0 1014124
18 мая, вт
вт1800:00+16юв3675100 0.0 101486
03:00+15вюв397397 0.0 1014149
06:00+16вюв3977100 0.0 1014194
09:00+23юв5105475 0.0 1014466
12:00+27юв59377 0.0 10131297
15:00+28юв59395 0.0 10121760
18:00+25вюв511547 0.0 1012652
21:00+19вюв414735 0.0 1012304
19 мая, ср
ср1900:00+16вюв314805 0.0 1012274
03:00+17вюв515641 0.0 1012355
06:00+17вюв3127119 0.0 1012343
09:00+24вюв614529 0.0 1011697
12:00+27юв6124375 0.0 10111829
15:00+29юв712435 0.0 10102773
18:00+25вюв511598 0.0 1010879
21:00+21вюв614742 0.0 1011507
20 мая, чт
чт2000:00+19вюв516720 0.0 1010572
03:00+15в412800 0.1 1011253
06:00+17в412790 0.0 1010514
09:00+21юв6106060 0.0 1010881
12:00+24юв8115565 0.0 10101635
15:00+22ююв7127061 1.1 10101386
18:00+20ю5107075 0.3 10111241
21:00+16ююв3108524 0.3 1011276
21 мая, пт
пт2100:00+14ююв4119271 0.1 1012367
03:00+12ююв499731 0.1 1012281
06:00+13ююв4891100 0.0 1013286
09:00+18ю68675 0.0 10121066
12:00+19ююз81062100 0.4 10121518
15:00+16ю5118061 1.6 10121023
18:00+16ююз612807 0.9 10111168
21:00+12юз511910 1.8 1012586